Lid_Strength_Index
1 0 -1 -1 -0 -0 0 0 1 1 1 1 1 1 1 2 2 2 3 2 2 1 1 2 2 1 1 2 2 2 7 9 8 8 7 5 6 5 4 5 5 4 5 4 3
2 2 1 -0 -0 -0 0 0 1 1 1 1 1 1 2 2 2 3 1 1 1 0 2 3 4 2 3 3 3 5 7 8 5 5 6 5 5 5 6 6 6 6 4 3 3
3 3 3 2 1 0 0 1 1 1 1 1 1 1 2 2 4 3 0 0 0 -0 2 2 3 3 4 4 4 5 7 5 5 4 4 5 5 5 6 7 6 7 6 4 4
4 4 4 3 2 1 1 1 1 1 1 1 1 1 2 2 8 1 -0 0 -0 1 3 3 4 4 5 6 4 6 5 5 4 4 4 6 5 6 6 6 4 4 4 4 4
3 4 4 4 3 2 2 2 1 1 2 2 2 2 2 5 5 -0 -1 0 2 2 3 4 4 4 5 5 5 6 5 4 4 4 5 5 6 6 6 5 4 4 4 5 4
3 3 4 4 4 3 3 3 2 2 2 2 2 3 3 7 3 1 1 2 2 3 3 2 3 3 4 5 5 5 5 5 5 5 5 6 6 5 5 4 5 5 5 5 4
4 4 4 4 4 4 3 3 3 3 3 2 2 3 5 6 3 1 2 2 2 2 3 2 1 3 3 5 4 4 6 5 5 5 6 5 8 7 5 4 5 4 4 5 4
4 4 4 4 4 4 4 3 3 3 3 4 3 3 7 3 3 2 2 3 2 2 2 1 1 2 3 3 4 6 6 9 6 5 5 7 13 6 4 5 5 5 5 5 4
4 5 5 5 4 4 4 3 3 3 4 4 4 5 8 4 6 3 1 4 3 2 1 2 2 4 4 6 7 7 10 9 8 5 6 7 12 6 4 5 6 5 4 4 4
3 4 4 4 4 4 5 4 2 4 3 2 4 7 6 7 6 5 2 2 4 3 4 3 4 6 6 7 11 10 9 9 11 7 6 7 8 6 5 5 6 5 4 5 4
2 2 3 3 4 4 4 2 4 4 4 6 6 7 7 6 4 5 4 4 4 5 6 4 7 8 7 6 6 7 8 9 8 6 7 8 7 7 6 5 6 6 5 4 4
2 2 2 3 3 3 2 4 4 4 8 5 5 5 4 5 7 6 3 6 6 7 5 6 8 6 5 6 7 7 8 8 7 6 7 7 7 6 6 6 5 5 5 4 4
2 2 2 2 2 3 2 2 0 1 7 7 5 6 6 5 7 7 4 6 6 7 7 8 7 5 6 7 8 8 8 8 9 7 6 7 8 7 6 5 5 5 4 4 4
2 2 2 2 4 3 2 0 -0 -0 9 9 7 6 5 5 8 5 4 5 6 7 7 7 5 6 7 8 7 9 6 7 8 9 11 7 12 9 7 7 6 5 5 4 4
2 3 2 2 3 2 1 -1 -1 2 15 8 7 3 5 7 7 7 4 5 8 7 6 8 7 7 8 7 6 8 6 7 8 9 9 9 11 9 7 7 6 5 5 4 3
2 2 2 2 2 1 0 -1 1 10 16 9 6 7 7 7 8 6 6 5 4 6 6 6 4 6 6 6 6 6 7 7 7 9 13 10 10 11 9 7 6 5 4 4 4
2 1 2 2 4 0 1 3 10 13 8 10 9 7 8 9 9 8 9 9 9 11 10 7 7 5 5 7 6 7 9 13 14 14 14 9 10 9 8 6 6 5 4 4 3
1 1 1 2 -0 -0 3 9 12 12 10 6 7 7 9 8 9 9 9 10 8 8 9 11 12 7 6 7 8 8 8 13 21 16 13 10 12 9 6 5 4 4 4 3 3
1 1 2 1 -1 -1 6 14 12 10 7 8 7 9 9 8 9 9 10 10 8 8 10 10 10 6 6 5 6 8 10 7 12 11 13 11 9 7 6 6 5 5 4 4 3
3 4 3 0 -1 2 9 12 9 7 7 7 9 8 10 9 10 10 10 8 8 7 6 7 10 7 6 5 6 7 6 11 10 16 17 12 11 10 8 7 6 5 5 4 3
3 7 3 1 -0 6 12 10 8 5 5 7 8 9 9 9 9 10 9 8 7 7 6 7 8 9 7 8 9 8 10 9 9 11 15 16 12 7 7 6 6 5 4 4 4
5 9 2 1 9 8 11 8 6 6 5 6 6 7 8 8 9 9 10 8 6 6 9 7 8 11 10 6 6 7 8 8 13 13 11 12 12 6 5 5 5 5 4 4 3
8 7 1 2 12 10 7 7 6 6 6 6 7 6 7 7 9 8 8 6 6 6 7 7 9 12 11 9 7 8 8 8 8 9 12 16 12 6 5 5 4 4 4 4 3
8 11 7 6 5 8 9 9 9 5 6 5 6 6 7 8 7 8 8 6 5 6 6 6 8 10 13 10 8 10 8 8 8 12 12 11 10 7 6 6 5 4 4 4 3
7 8 7 11 9 8 7 8 8 8 5 5 7 7 7 9 9 9 8 7 6 6 6 6 11 9 8 8 8 8 9 8 9 9 11 10 9 7 6 6 5 4 4 4 4
9 7 6 7 7 8 8 9 9 7 7 7 7 6 7 9 9 11 8 8 8 6 7 6 10 9 10 8 8 9 8 8 8 8 8 8 8 5 5 4 5 4 4 4 4
5 3 5 7 8 9 9 8 8 6 6 5 6 6 7 7 7 6 6 7 7 8 8 8 10 11 13 9 9 12 9 8 8 7 8 10 7 5 6 5 5 4 4 4 4